FW1577 Weather Reports


Display with metric or nautical units.
time (UTC)temp
F
wind
direction
speed
MPH
gust
MPH
rain 1hr
in
rain 24hr
in
rain mn
in
humidity
%
barometer
mb
20260510140054 43 94 0.0 0.0 0.00 0.00 0.00 96 997.8
20260510134547 43 94 0.0 0.0 0.00 0.00 0.00 96 997.8
20260510133045 44 92 0.0 0.0 0.00 0.00 0.00 96 997.8
20260510131544 44 93 0.0 0.0 0.00 0.00 0.00 96 997.8
20260510130044 43 93 0.0 0.0 0.00 0.00 0.00 96 997.8
20260510124554 44 94 0.0 0.0 0.00 0.00 0.00 96 997.9
20260510123041 44 93 0.0 0.0 0.00 0.00 0.00 95 998.0
20260510121539 45 94 0.0 1.0 0.00 0.00 0.00 95 998.0
20260510120038 45 92 0.0 0.0 0.00 0.00 0.00 95 997.9
20260510114541 45 92 0.0 0.0 0.00 0.00 0.00 95 997.8
20260510113036 45 93 0.0 0.0 0.00 0.00 0.00 95 997.7
20260510111532 45 92 0.0 0.0 0.00 0.00 0.00 95 997.7
20260510110031 46 94 0.0 1.0 0.00 0.00 0.00 95 997.5
20260510104535 46 94 0.0 1.0 0.00 0.00 0.00 95 997.5
20260510103028 46 93 0.0 0.0 0.00 0.00 0.00 94 997.5
20260510101528 47 94 0.0 2.0 0.00 0.00 0.00 95 997.4
20260510100027 47 98 0.0 1.0 0.00 0.00 0.00 95 997.2
20260510094535 46 86 0.0 0.0 0.00 0.00 0.00 94 997.2
20260510093024 47 85 0.0 0.0 0.00 0.00 0.00 93 997.2
20260510091523 47 84 0.0 0.0 0.00 0.00 0.00 93 997.1
20260510090024 48 85 0.0 0.0 0.00 0.00 0.00 93 996.9
20260510084523 48 86 0.0 0.0 0.00 0.00 0.00 92 996.8
20260510083021 49 86 0.0 0.0 0.00 0.00 0.00 91 996.6
20260510081534 50 86 0.0 0.0 0.00 0.00 0.00 90 996.4
20260510080030 51 76 0.0 0.0 0.00 0.00 0.00 88 996.3
20260510074520 52 75 0.0 0.0 0.00 0.00 0.00 87 996.1
20260510073019 53 305 0.0 1.0 0.00 0.00 0.00 85 995.9
20260510071519 54 262 0.0 3.0 0.00 0.00 0.00 83 995.8
20260510070021 56 328 0.0 2.0 0.00 0.00 0.00 82 995.8
20260510064520 57 313 0.0 4.0 0.00 0.00 0.00 79 995.6
20260510063020 58 283 0.0 3.0 0.00 0.00 0.00 78 995.5
20260510061524 58 317 1.0 5.0 0.00 0.00 0.00 78 995.4
20260510060015 59 281 2.0 8.0 0.00 0.00 0.00 77 995.4
20260510054515 59 278 1.0 9.0 0.00 0.00 0.00 77 995.4
20260510053014 59 313 3.0 7.0 0.00 0.00 0.00 76 995.2
20260510051521 60 233 1.0 6.0 0.00 0.00 0.00 77 995.1
20260510050010 59 231 1.0 9.0 0.00 0.00 0.00 78 995.2
20260510044511 59 319 4.0 11.0 0.00 0.00 0.00 76 995.1
20260510043018 59 311 3.0 9.0 0.00 0.00 0.00 77 995.2
20260510041506 59 238 2.0 8.0 0.00 0.00 0.00 76 995.3
20260510040005 59 262 2.0 8.0 0.00 0.00 0.00 78 995.3
20260510034503 59 226 3.0 10.0 0.00 0.00 0.00 77 995.4
20260510033001 59 316 3.0 7.0 0.00 0.00 0.00 77 995.4
20260510031603 59 228 3.0 8.0 0.00 0.00 0.00 76 995.4
20260510030058 59 285 3.0 7.0 0.00 0.00 0.00 77 995.6
20260510024610 58 242 3.0 11.0 0.00 0.00 0.00 78 995.6
20260510023059 59 283 2.0 7.0 0.00 0.00 0.00 77 995.9
20260510021552 58 281 3.0 9.0 0.00 0.00 0.00 76 996.1
20260510020050 58 250 3.0 7.0 0.00 0.00 0.00 78 996.3
20260510014649 58 291 4.0 11.0 0.00 0.00 0.00 78 996.5
20260510013100 58 250 3.0 6.0 0.00 0.00 0.00 78 996.6
20260510011548 58 307 2.0 6.0 0.00 0.00 0.00 78 996.9
20260510010046 57 330 2.0 5.0 0.00 0.00 0.00 78 996.9
20260510004547 56 250 1.0 7.0 0.00 0.00 0.00 79 996.9
20260510003041 56 139 1.0 5.0 0.00 0.00 0.00 81 997.0
20260510001539 56 319 2.0 5.0 0.00 0.00 0.00 82 997.0
20260510000037 55 225 0.0 4.0 0.00 0.00 0.00 84 996.9
20260509234535 54 195 1.0 4.0 0.00 0.00 0.00 85 997.0
20260509233031 54 303 0.0 1.0 0.00 0.00 0.00 90 997.0
20260509231528 52 96 0.0 1.0 0.00 0.00 0.00 93 997.0
20260509230024 51 98 0.0 2.0 0.00 0.00 0.00 93 996.9
20260509224523 50 115 1.0 3.0 0.00 0.00 0.00 92 996.8
20260509223022 49 109 1.0 3.0 0.00 0.00 0.00 93 996.7
20260509221520 49 82 1.0 3.0 0.00 0.00 0.00 93 996.5
20260509220018 48 79 1.0 3.0 0.00 0.00 0.00 94 996.4
20260509214516 48 77 1.0 3.0 0.00 0.00 0.00 95 996.2
20260509213014 47 94 0.0 1.0 0.00 0.00 0.00 96 996.0
20260509211516 46 197 0.0 0.0 0.00 0.00 0.00 96 995.8
20260509210015 46 196 0.0 0.0 0.00 0.00 0.00 95 995.7
20260509204513 46 196 0.0 0.0 0.00 0.00 0.00 95 995.6
20260509203011 46 85 0.0 0.0 0.00 0.00 0.00 95 995.5
20260509201506 47 83 0.0 0.0 0.00 0.00 0.00 94 995.3
20260509200005 47 84 0.0 0.0 0.00 0.00 0.00 95 995.2
20260509194504 47 84 0.0 0.0 0.00 0.00 0.00 94 995.0
20260509193004 48 83 0.0 1.0 0.00 0.00 0.00 94 994.8
20260509191600 48 109 0.0 1.0 0.00 0.00 0.00 93 994.7
20260509190058 49 91 0.0 1.0 0.00 0.00 0.00 93 994.5
20260509184558 50 98 0.0 2.0 0.00 0.00 0.00 94 994.3
20260509183056 50 122 0.0 3.0 0.00 0.00 0.00 94 994.3
20260509181556 49 131 2.0 4.0 0.00 0.00 0.00 94 994.3
20260509180055 49 96 0.0 2.0 0.00 0.00 0.00 95 994.2
20260509174554 49 105 2.0 4.0 0.00 0.00 0.00 95 994.2
20260509173116 49 76 0.0 3.0 0.00 0.00 0.00 95 994.2
20260509171551 49 91 0.0 0.0 0.00 0.00 0.00 95 994.3
20260509170057 50 91 0.0 0.0 0.00 0.00 0.00 94 994.3
20260509164557 50 84 0.0 1.0 0.00 0.00 0.00 95 994.3
20260509163051 50 116 0.0 1.0 0.00 0.00 0.00 95 994.4
20260509161548 50 127 0.0 3.0 0.00 0.00 0.00 96 994.4
20260509160049 49 95 0.0 0.0 0.00 0.00 0.00 96 994.4
20260509154547 50 94 0.0 0.0 0.00 0.00 0.00 96 994.3
20260509153044 50 142 0.0 0.0 0.00 0.00 0.00 96 994.3
20260509151555 51 211 0.0 1.0 0.00 0.00 0.00 97 994.4
20260509150046 50 224 0.0 4.0 0.00 0.00 0.00 97 994.4
20260509144538 47 79 0.0 1.0 0.00 0.00 0.00 96 994.3
20260509143041 48 82 0.0 1.0 0.00 0.00 0.00 97 994.3
20260509141535 47 83 0.0 0.0 0.00 0.00 0.00 96 994.4